When you browse on this site, cookies collect data to enhance your experience and personalize the content and advertising you see.
Visit our Privacy Policy to learn more. By continuing to use the site, you agree to this use of cookies and data.
  • In United Kingdom
  • List of Countries
  • For 7 days
  • Water Temperature
  • Satellite Maps
  • Weather Map
  • Weather Widgets
  • user-avatar
    Login

    Hourly Weather Gjirokaster

    Today, 19 April, Friday

    Time Temperature Precipitation Wind Pressure Humidity
    00:00 +3°C° 0 mm 2 mps 654 mmHg 76%
    01:00 +3°C° 0 mm 2 mps 654 mmHg 77%
    02:00 +2°C° 0 mm 2 mps 654 mmHg 77%
    03:00 +2°C° 0 mm 2 mps 654 mmHg 78%
    04:00 +2°C° 0 mm 2 mps 654 mmHg 78%
    05:00 +3°C° 0 mm 2 mps 655 mmHg 75%
    06:00 +4°C° 0 mm 2 mps 655 mmHg 72%
    07:00 +6°C° 0 mm 2 mps 656 mmHg 68%
    08:00 +8°C° 0 mm 1 mps 656 mmHg 61%
    09:00 +10°C° 0 mm 1 mps 657 mmHg 54%
    10:00 +11°C° 0 mm 1 mps 657 mmHg 48%
    11:00 +12°C° 0 mm 2 mps 657 mmHg 48%
    12:00 +12°C° 0 mm 2 mps 657 mmHg 49%
    13:00 +11°C° 0 mm 3 mps 657 mmHg 49%
    14:00 +11°C° 0 mm 3 mps 657 mmHg 53%
    15:00 +11°C° 0 mm 3 mps 657 mmHg 56%
    16:00 +10°C° 0 mm 3 mps 656 mmHg 60%
    17:00 +9°C° 0 mm 3 mps 656 mmHg 67%
    18:00 +7°C° 0 mm 3 mps 655 mmHg 73%
    19:00 +6°C° 0 mm 2 mps 655 mmHg 80%
    20:00 +5°C° 0 mm 2 mps 655 mmHg 80%
    21:00 +5°C° 0 mm 2 mps 655 mmHg 81%
    22:00 +4°C° 0 mm 2 mps 655 mmHg 82%
    23:00 +4°C° 0 mm 2 mps 655 mmHg 82%

    Tomorrow, 20 April, Saturday

    Time Temperature Precipitation Wind Pressure Humidity
    00:00 +4°C° 0 mm 2 mps 655 mmHg 81%
    01:00 +3°C° 0 mm 2 mps 655 mmHg 81%
    02:00 +3°C° 0 mm 2 mps 654 mmHg 80%
    03:00 +3°C° 0 mm 2 mps 654 mmHg 80%
    04:00 +3°C° 0 mm 2 mps 654 mmHg 80%
    05:00 +5°C° 0 mm 1 mps 654 mmHg 77%
    06:00 +6°C° 0 mm 1 mps 654 mmHg 73%
    07:00 +8°C° 0 mm 1 mps 655 mmHg 70%
    08:00 +9°C° 0 mm 1 mps 655 mmHg 63%
    09:00 +11°C° 0 mm 1 mps 656 mmHg 57%
    10:00 +12°C° 0 mm 1 mps 656 mmHg 50%
    11:00 +13°C° 0 mm 1 mps 656 mmHg 49%
    12:00 +13°C° 0 mm 2 mps 656 mmHg 48%
    13:00 +14°C° 0 mm 2 mps 656 mmHg 47%
    14:00 +13°C° 0.1 mm 2 mps 656 mmHg 51%
    15:00 +12°C° 0.1 mm 2 mps 656 mmHg 55%
    16:00 +12°C° 0.1 mm 2 mps 655 mmHg 60%
    17:00 +10°C° 0.1 mm 2 mps 655 mmHg 64%
    18:00 +8°C° 0.1 mm 2 mps 655 mmHg 69%
    19:00 +8°C° 0.1 mm 1 mps 655 mmHg 73%
    20:00 +8°C° 0 mm 1 mps 655 mmHg 73%
    21:00 +7°C° 0 mm 1 mps 655 mmHg 74%
    22:00 +7°C° 0 mm 1 mps 655 mmHg 74%
    23:00 +7°C° 0 mm 1 mps 655 mmHg 74%

    Day after tomorrow, 21 April, Sunday

    Time Temperature Precipitation Wind Pressure Humidity
    00:00 +6°C° 0 mm 2 mps 655 mmHg 75%
    01:00 +6°C° 0 mm 2 mps 655 mmHg 75%
    02:00 +6°C° 0 mm 2 mps 655 mmHg 77%
    03:00 +5°C° 0 mm 2 mps 655 mmHg 78%
    04:00 +5°C° 0 mm 2 mps 655 mmHg 80%
    05:00 +6°C° 0 mm 2 mps 655 mmHg 79%
    06:00 +6°C° 0 mm 2 mps 655 mmHg 77%
    07:00 +7°C° 0 mm 2 mps 656 mmHg 76%
    08:00 +7°C° 0.1 mm 2 mps 656 mmHg 76%
    09:00 +8°C° 0.1 mm 3 mps 656 mmHg 75%
    10:00 +8°C° 0.1 mm 3 mps 656 mmHg 75%
    11:00 +9°C° 0.5 mm 3 mps 656 mmHg 75%
    12:00 +9°C° 0.5 mm 3 mps 656 mmHg 74%
    13:00 +9°C° 0.5 mm 3 mps 656 mmHg 73%
    14:00 +9°C° 0.4 mm 3 mps 655 mmHg 76%
    15:00 +8°C° 0.4 mm 2 mps 655 mmHg 78%
    16:00 +8°C° 0.4 mm 2 mps 654 mmHg 81%
    17:00 +7°C° 0.1 mm 2 mps 654 mmHg 85%
    18:00 +6°C° 0.1 mm 2 mps 654 mmHg 89%
    19:00 +7°C° 0.1 mm 1 mps 653 mmHg 92%
    20:00 +6°C° 0 mm 1 mps 654 mmHg 93%
    21:00 +6°C° 0 mm 1 mps 654 mmHg 94%
    22:00 +6°C° 0 mm 1 mps 654 mmHg 95%
    23:00 +6°C° 0 mm 1 mps 653 mmHg 94%

    22 April, Monday

    Time Temperature Precipitation Wind Pressure Humidity
    00:00 +5°C° 0 mm 1 mps 653 mmHg 94%
    01:00 +5°C° 0 mm 1 mps 653 mmHg 94%
    02:00 +5°C° 0 mm 1 mps 653 mmHg 94%
    03:00 +5°C° 0 mm 1 mps 653 mmHg 94%
    04:00 +4°C° 0 mm 2 mps 652 mmHg 94%
    05:00 +4°C° 0.2 mm 2 mps 652 mmHg 92%
    06:00 +5°C° 0.2 mm 2 mps 653 mmHg 90%
    07:00 +5°C° 0.2 mm 2 mps 653 mmHg 87%
    08:00 +7°C° 0 mm 3 mps 653 mmHg 79%
    09:00 +9°C° 0 mm 3 mps 654 mmHg 71%
    10:00 +11°C° 0 mm 3 mps 654 mmHg 63%
    11:00 +11°C° 0 mm 3 mps 654 mmHg 59%
    12:00 +12°C° 0 mm 4 mps 654 mmHg 56%
    13:00 +13°C° 0 mm 4 mps 654 mmHg 53%
    14:00 +12°C° 0 mm 4 mps 653 mmHg 58%
    15:00 +11°C° 0 mm 3 mps 653 mmHg 63%
    16:00 +10°C° 0 mm 3 mps 652 mmHg 68%
    17:00 +9°C° 0.3 mm 3 mps 652 mmHg 74%
    18:00 +8°C° 0.3 mm 3 mps 651 mmHg 80%
    19:00 +7°C° 0.3 mm 3 mps 651 mmHg 86%
    20:00 +7°C° 0 mm 3 mps 651 mmHg 86%
    21:00 +7°C° 0 mm 3 mps 651 mmHg 86%
    22:00 +5°C° 0 mm 3 mps 651 mmHg 85%
    23:00 +5°C° 0 mm 3 mps 651 mmHg 85%

    23 April, Tuesday

    Time Temperature Precipitation Wind Pressure Humidity
    00:00 +4°C° 0 mm 3 mps 651 mmHg 84%
    01:00 +4°C° 0 mm 3 mps 650 mmHg 83%
    02:00 +4°C° 0.1 mm 3 mps 650 mmHg 82%
    03:00 +4°C° 0.1 mm 4 mps 650 mmHg 81%
    04:00 +5°C° 0.1 mm 4 mps 650 mmHg 79%
    05:00 +5°C° 0 mm 4 mps 650 mmHg 77%
    06:00 +6°C° 0 mm 4 mps 651 mmHg 76%
    07:00 +7°C° 0 mm 4 mps 651 mmHg 74%
    08:00 +8°C° 0.1 mm 4 mps 652 mmHg 66%
    09:00 +10°C° 0.1 mm 5 mps 652 mmHg 59%
    10:00 +13°C° 0.1 mm 5 mps 653 mmHg 52%
    11:00 +13°C° 0.2 mm 6 mps 653 mmHg 52%
    12:00 +13°C° 0.2 mm 6 mps 653 mmHg 52%
    13:00 +13°C° 0.2 mm 6 mps 653 mmHg 52%
    14:00 +12°C° 0.2 mm 5 mps 652 mmHg 58%
    15:00 +11°C° 0.2 mm 4 mps 652 mmHg 63%
    16:00 +10°C° 0.2 mm 3 mps 652 mmHg 69%
    17:00 +9°C° 0.1 mm 3 mps 652 mmHg 71%
    18:00 +9°C° 0.1 mm 2 mps 652 mmHg 72%
    19:00 +8°C° 0.1 mm 2 mps 652 mmHg 74%
    20:00 +8°C° 0 mm 2 mps 652 mmHg 76%
    21:00 +7°C° 0 mm 2 mps 652 mmHg 77%
    22:00 +7°C° 0 mm 2 mps 652 mmHg 79%
    23:00 +6°C° 0 mm 2 mps 652 mmHg 78%

    24 April, Wednesday

    Time Temperature Precipitation Wind Pressure Humidity
    00:00 +6°C° 0 mm 2 mps 652 mmHg 77%
    01:00 +6°C° 0 mm 2 mps 652 mmHg 76%
    02:00 +6°C° 0 mm 2 mps 652 mmHg 75%
    03:00 +6°C° 0 mm 2 mps 653 mmHg 74%
    04:00 +5°C° 0 mm 2 mps 653 mmHg 72%
    05:00 +7°C° 0 mm 2 mps 653 mmHg 70%
    06:00 +8°C° 0 mm 2 mps 653 mmHg 68%
    07:00 +9°C° 0 mm 2 mps 654 mmHg 65%
    08:00 +12°C° 0 mm 2 mps 654 mmHg 58%
    09:00 +14°C° 0 mm 3 mps 655 mmHg 52%
    10:00 +17°C° 0 mm 3 mps 656 mmHg 45%
    11:00 +17°C° 0 mm 3 mps 656 mmHg 44%
    12:00 +18°C° 0 mm 3 mps 656 mmHg 43%
    13:00 +18°C° 0 mm 3 mps 656 mmHg 43%
    14:00 +18°C° 0 mm 3 mps 655 mmHg 45%
    15:00 +18°C° 0 mm 2 mps 655 mmHg 48%
    16:00 +18°C° 0 mm 2 mps 655 mmHg 50%
    17:00 +16°C° 0 mm 2 mps 654 mmHg 56%
    18:00 +14°C° 0 mm 1 mps 654 mmHg 62%
    19:00 +12°C° 0 mm 1 mps 654 mmHg 68%
    20:00 +11°C° 0 mm 1 mps 654 mmHg 69%
    21:00 +10°C° 0 mm 2 mps 654 mmHg 71%
    22:00 +9°C° 0 mm 2 mps 654 mmHg 72%
    23:00 +9°C° 0 mm 2 mps 653 mmHg 74%
    Show more